Weather History for Flora, IL

Change the Weather History Date:

Thursday, May 30, 2013

  Actual Average (KEVV) Record (KEVV)
Temperature  
Mean Temperature 76 °F 70 °F  
Max Temperature 87 °F 81 °F 94 °F (1977)
Min Temperature 65 °F 59 °F 37 °F (1947)
Degree Days  
Heating Degree Days 0 1  
Month to date heating degree days 85  
Since 1 July heating degree days 4540  
Cooling Degree Days 11 6  
Month to date cooling degree days 102  
Year to date cooling degree days 129  
Growing Degree Days 26 (Base 50)    
Moisture  
Dew Point 65 °F    
Average Humidity 66    
Maximum Humidity 96    
Minimum Humidity 46    
Precipitation  
Precipitation 0.33 in 0.17 in 1.79 in (1997)
Month to date precipitation 5.19  
Year to date precipitation 20.07  
Snow  
Snow 0.00 in 0.00 in 0.00 in (2002)
Month to date snowfall 0.0  
Since 1 July snowfall 11.8  
Snow Depth -    
Sea Level Pressure  
Sea Level Pressure 29.96 in    
Wind  
Wind Speed 13 mph (South)    
Max Wind Speed 31 mph    
Max Gust Speed 36 mph    
Visibility 10 miles    
Events Rain , Thunderstorm    
T = Trace of Precipitation, MM = Missing Value Source: NWS Daily Summary

Daily Weather History Graph

Daily Weather History Graph

Search for Another Location

Airport:

Trip Planner

Search our weather history database for the weather conditions in past years. The results will help you decide how hot, cold, wet, or windy it might be!

Date:

Astronomy

May. 30, 2013 Rise Set
Actual Time 5:31 AM CDT 8:11 PM CDT
Civil Twilight 5:00 AM CDT 8:42 PM CDT
Nautical Twilight 4:21 AM CDT 9:21 PM CDT
Astronomical Twilight 3:38 AM CDT 10:05 PM CDT
Moon 12:14 AM CDT (5/30) 11:37 AM CDT (5/30)
Length of Visible Light 15h 42m
Length of Day
14h 39m
Waning Gibbous, 62% of the Moon is Illuminated
May 30
Waning Gibbous
May 31
Last Quarter
Jun 8
New
Jun 16
First Quarter
Jun 23
Full

Hourly Weather History & Observations

Time (CDT) Temp. Heat Index Dew Point Humidity Pressure Visibility Wind Dir Wind Speed Gust Speed Precip Events Conditions
12:15 AM 71.1 °F - 63.5 °F 77% 29.99 in 10.0 mi SE 5.8 mph - N/A   Clear
12:35 AM 71.2 °F - 63.5 °F 76% 29.99 in 10.0 mi SE 5.8 mph - N/A   Clear
12:55 AM 71.6 °F - 63.9 °F 76% 29.99 in 10.0 mi SE 6.9 mph - N/A   Clear
1:15 AM 72.0 °F - 64.4 °F 77% 29.99 in 10.0 mi SE 6.9 mph - N/A   Clear
1:35 AM 72.5 °F - 64.4 °F 76% 29.98 in 10.0 mi SSE 6.9 mph - N/A   Clear
1:55 AM 73.4 °F - 64.6 °F 74% 29.98 in 10.0 mi SSE 8.1 mph - N/A   Clear
2:15 AM 73.2 °F - 64.4 °F 74% 29.98 in 10.0 mi SSE 6.9 mph - N/A   Clear
2:35 AM 72.7 °F - 64.4 °F 75% 29.97 in 10.0 mi SSE 10.4 mph - N/A   Clear
2:55 AM 72.5 °F - 64.4 °F 76% 29.97 in 10.0 mi SSE 10.4 mph - N/A   Clear
3:15 AM 73.4 °F - 64.6 °F 74% 29.97 in 10.0 mi SSE 10.4 mph - N/A   Clear
3:35 AM 72.7 °F - 64.6 °F 76% 29.96 in 10.0 mi SSE 10.4 mph - N/A   Clear
3:55 AM 72.9 °F - 64.6 °F 75% 29.97 in 10.0 mi SSE 10.4 mph - N/A   Clear
4:15 AM 72.1 °F - 64.6 °F 77% 29.97 in 10.0 mi SSE 10.4 mph - N/A   Clear
4:35 AM 72.5 °F - 64.8 °F 77% 29.98 in 10.0 mi SSE 10.4 mph - N/A   Clear
4:55 AM 72.1 °F - 64.9 °F 78% 29.99 in 10.0 mi SSE 8.1 mph - N/A   Clear
5:15 AM 72.1 °F - 64.8 °F 78% 29.99 in 10.0 mi SSE 10.4 mph - N/A   Clear
5:35 AM 72.3 °F - 64.8 °F 77% 29.99 in 10.0 mi SSE 9.2 mph - N/A   Clear
5:55 AM 72.9 °F - 64.8 °F 76% 29.99 in 10.0 mi SSE 11.5 mph - N/A   Clear
6:15 AM 72.7 °F - 64.9 °F 77% 29.99 in 10.0 mi SSE 11.5 mph - N/A   Clear
6:35 AM 73.0 °F - 64.9 °F 76% 29.99 in 10.0 mi SSE 9.2 mph - N/A   Clear
6:55 AM 73.2 °F - 65.3 °F 76% 30.00 in 10.0 mi SE 9.2 mph - N/A   Unknown
7:15 AM 73.9 °F - 65.7 °F 75% 30.00 in 10.0 mi SSE 11.5 mph - N/A   Unknown
7:35 AM 75.4 °F - 66.4 °F 73% 30.00 in 10.0 mi SSE 12.7 mph - N/A   Unknown
7:55 AM 76.6 °F - 66.0 °F 70% 30.00 in 10.0 mi SSE 15.0 mph 21.9 mph N/A   Clear
8:15 AM 76.5 °F - 66.4 °F 71% 30.01 in 10.0 mi South 15.0 mph 18.4 mph N/A   Unknown
8:35 AM 76.6 °F - 66.2 °F 70% 30.01 in 10.0 mi South 19.6 mph - N/A   Unknown
8:55 AM 77.2 °F - 66.4 °F 69% 30.01 in 10.0 mi South 18.4 mph 25.3 mph N/A   Unknown
9:15 AM 79.2 °F - 66.6 °F 65% 30.00 in 10.0 mi South 17.3 mph 26.5 mph N/A   Unknown
9:35 AM 79.7 °F - 66.4 °F 64% 30.00 in 10.0 mi South 18.4 mph 26.5 mph N/A   Unknown
9:55 AM 79.7 °F - 65.8 °F 62% 29.99 in 10.0 mi South 20.7 mph 27.6 mph N/A   Unknown
10:15 AM 80.1 °F 82.1 °F 66.2 °F 62% 29.99 in 10.0 mi South 20.7 mph 26.5 mph N/A   Clear
10:35 AM 82.0 °F 84.5 °F 66.7 °F 60% 29.99 in 10.0 mi South 25.3 mph 29.9 mph N/A   Clear
10:55 AM 81.1 °F 82.9 °F 65.3 °F 58% 29.99 in 10.0 mi South 25.3 mph 33.4 mph N/A   Clear
11:15 AM 82.8 °F 84.5 °F 65.1 °F 55% 29.99 in 10.0 mi South 24.2 mph 27.6 mph N/A   Clear
11:35 AM 83.8 °F 85.6 °F 64.9 °F 53% 29.98 in 10.0 mi South 21.9 mph 31.1 mph N/A   Clear
11:55 AM 84.6 °F 85.6 °F 63.3 °F 49% 29.98 in 10.0 mi South 26.5 mph 34.5 mph N/A   Clear
12:15 PM 84.6 °F 85.4 °F 63.0 °F 48% 29.98 in 10.0 mi South 26.5 mph 34.5 mph N/A   Scattered Clouds
12:35 PM 85.1 °F 85.9 °F 62.8 °F 47% 29.97 in 10.0 mi South 23.0 mph 35.7 mph N/A   Clear
12:55 PM 85.3 °F 85.9 °F 62.1 °F 46% 29.97 in 10.0 mi SSW 31.1 mph 35.7 mph N/A   Clear
1:15 PM 85.1 °F 85.9 °F 62.6 °F 47% 29.97 in 10.0 mi SSW 23.0 mph 31.1 mph N/A   Clear
1:35 PM 84.7 °F 85.4 °F 62.6 °F 47% 29.97 in 10.0 mi South 24.2 mph 31.1 mph N/A   Clear
1:55 PM 85.3 °F 86.4 °F 63.7 °F 48% 29.97 in 10.0 mi SSW 21.9 mph 32.2 mph N/A   Clear
2:15 PM 85.6 °F 86.6 °F 63.5 °F 47% 29.96 in 10.0 mi South 24.2 mph 32.2 mph N/A   Clear
2:35 PM 87.3 °F 88.6 °F 64.4 °F 46% 29.95 in 10.0 mi South 25.3 mph 29.9 mph N/A Thunderstorm Clear
2:55 PM 86.4 °F 87.3 °F 63.3 °F 46% 29.94 in 10.0 mi SSW 25.3 mph 31.1 mph N/A   Clear
3:15 PM 86.7 °F 87.8 °F 63.7 °F 46% 29.94 in 10.0 mi SSW 21.9 mph 28.8 mph N/A Thunderstorm Clear
3:35 PM 85.5 °F 86.8 °F 64.0 °F 49% 29.93 in 10.0 mi South 23.0 mph 31.1 mph N/A   Scattered Clouds
3:55 PM 85.5 °F 86.8 °F 64.2 °F 49% 29.92 in 10.0 mi South 25.3 mph 33.4 mph N/A   Clear
4:15 PM 86.9 °F 88.1 °F 64.0 °F 46% 29.92 in 10.0 mi South 26.5 mph 33.4 mph N/A   Clear
4:35 PM 86.0 °F 86.8 °F 62.8 °F 46% 29.90 in 10.0 mi South 27.6 mph 32.2 mph N/A   Clear
4:55 PM 84.4 °F 85.2 °F 63.0 °F 48% 29.89 in 10.0 mi South 20.7 mph 35.7 mph N/A   Clear
5:15 PM 84.9 °F 85.9 °F 63.0 °F 48% 29.89 in 10.0 mi South 23.0 mph 33.4 mph N/A   Clear
5:35 PM 82.8 °F 84.7 °F 65.8 °F 56% 29.89 in 10.0 mi South 21.9 mph 27.6 mph N/A   Clear
5:55 PM 84.2 °F 86.3 °F 65.8 °F 54% 29.90 in 10.0 mi South 17.3 mph 23.0 mph N/A   Clear
6:15 PM 83.5 °F 84.7 °F 63.9 °F 51% 29.89 in 10.0 mi South 23.0 mph 29.9 mph N/A   Clear
6:35 PM 82.0 °F 84.1 °F 66.0 °F 58% 29.89 in 10.0 mi SSE 19.6 mph 24.2 mph N/A   Clear
6:55 PM 80.2 °F 82.5 °F 66.7 °F 63% 29.90 in 10.0 mi SSE 16.1 mph - N/A   Clear
7:15 PM 79.7 °F - 66.6 °F 64% 29.92 in 10.0 mi South 19.6 mph 24.2 mph N/A   Clear
7:35 PM 79.2 °F - 66.0 °F 64% 29.92 in 10.0 mi South 15.0 mph - N/A   Clear
7:55 PM 79.2 °F - 67.3 °F 67% 29.92 in 10.0 mi South 16.1 mph - N/A   Clear
8:15 PM 78.4 °F - 67.1 °F 68% 29.92 in 10.0 mi South 13.8 mph - N/A   Clear
8:35 PM 79.2 °F - 67.1 °F 66% 29.92 in 10.0 mi South 16.1 mph 23.0 mph N/A   Clear
8:55 PM 77.9 °F - 66.7 °F 68% 29.93 in 10.0 mi South 11.5 mph - N/A   Clear
9:15 PM 77.0 °F - 67.3 °F 72% 29.93 in 10.0 mi SSE 12.7 mph - N/A   Clear
9:35 PM 76.6 °F - 67.1 °F 72% 29.97 in 10.0 mi South 27.6 mph 34.5 mph 0.01 in Rain , Thunderstorm Rain
9:55 PM 66.2 °F - 62.6 °F 88% 29.97 in 3.0 mi West 12.7 mph 34.5 mph 0.25 in Rain , Thunderstorm Heavy Thunderstorms and Rain
10:15 PM 65.7 °F - 63.9 °F 94% 29.98 in 10.0 mi SSW 3.5 mph - 0.02 in Rain , Thunderstorm Rain
10:35 PM 66.0 °F - 64.4 °F 94% 29.96 in 7.0 mi Calm Calm - 0.08 in Rain Light Rain
10:55 PM 66.4 °F - 64.9 °F 95% 29.95 in 10.0 mi ESE 5.8 mph - 0.08 in Thunderstorm Scattered Clouds
11:15 PM 66.2 °F - 64.9 °F 96% 29.96 in 10.0 mi SE 6.9 mph - N/A   Clear
11:35 PM 67.8 °F - 65.7 °F 93% 29.96 in 10.0 mi South 12.7 mph - N/A   Clear
11:55 PM 70.0 °F - 66.2 °F 88% 29.95 in 10.0 mi South 10.4 mph 16.1 mph N/A   Clear